CDT,Max TemperatureF,Mean TemperatureF,Min TemperatureF,Max Dew PointF,MeanDew PointF,Min DewpointF,Max Humidity, Mean Humidity, Min Humidity, Max Sea Level PressureIn, Mean Sea Level PressureIn, Min Sea Level PressureIn, Max VisibilityMiles, Mean VisibilityMiles, Min VisibilityMiles, Max Wind SpeedMPH, Mean Wind SpeedMPH, Max Gust SpeedMPH,PrecipitationIn, CloudCover, Events, WindDirDegrees
2013-10-1,81,67,53,53,46,33,91,53,18,29.96,29.90,29.77,10,10,2,14,7,20,0.00,0,,14
2013-10-2,87,70,53,63,55,44,91,62,34,29.96,29.90,29.82,10,10,3,21,6,36,0.00,1,,168
2013-10-3,78,70,61,63,61,58,94,78,58,29.88,29.78,29.72,10,9,2,20,7,34,1.53,5,Rain,54
2013-10-4,84,67,50,70,59,38,91,75,44,29.88,29.74,29.61,10,10,5,24,15,34,0.36,6,Rain,121
2013-10-5,52,46,41,38,34,32,87,63,46,29.95,29.88,29.80,10,10,10,24,15,32,0.00,5,,246
2013-10-6,58,50,42,45,40,33,91,74,44,30.02,29.89,29.79,10,10,5,21,14,31,0.00,6,Rain,306
2013-10-7,76,60,43,43,38,32,78,53,23,30.08,30.03,29.98,10,10,10,15,8,22,0.00,0,,235
2013-10-8,79,62,47,44,42,40,79,48,27,29.98,29.94,29.87,10,10,10,25,13,32,0.00,0,,174
2013-10-9,81,65,50,50,47,44,83,59,30,29.99,29.95,29.91,10,10,10,22,12,31,0.00,0,,149
2013-10-10,82,68,54,55,52,48,83,60,36,29.98,29.89,29.77,10,10,10,29,13,32,0.00,0,,150
2013-10-11,79,66,53,58,49,37,79,58,22,29.91,29.72,29.62,10,10,10,26,17,37,0.00,2,Rain,192
2013-10-12,68,56,43,42,34,25,79,51,20,30.29,30.12,29.90,10,10,10,18,7,23,0.00,0,,298
2013-10-13,70,52,35,39,34,31,87,56,24,30.41,30.33,30.27,10,10,10,16,5,20,0.00,0,,115
2013-10-14,60,53,46,58,46,33,94,77,44,30.27,29.99,29.71,10,9,1,28,12,36,1.49,8,Rain,134
2013-10-15,53,49,44,48,40,36,85,73,66,30.08,29.96,29.80,10,10,10,28,19,34,0.31,8,,286
2013-10-16,58,50,42,40,35,24,83,63,28,30.09,30.03,29.96,10,10,10,15,10,20,0.00,4,,294
2013-10-17,59,46,34,41,36,32,89,69,44,30.07,29.95,29.88,10,10,10,24,6,30,0.00,3,,303
2013-10-18,51,43,35,36,31,25,86,66,38,30.14,30.07,30.00,10,10,7,14,9,,0.00,1,,286
2013-10-19,63,50,36,37,33,31,83,63,33,30.00,29.88,29.80,10,10,7,22,8,25,0.00,1,,248
2013-10-20,66,54,40,41,37,34,85,61,31,30.04,29.81,29.71,10,10,10,23,7,32,0.00,4,,305
2013-10-21,56,44,32,37,34,30,93,73,41,30.11,30.03,29.92,10,10,10,12,7,17,0.00,4,,273
2013-10-22,50,44,38,43,37,33,91,75,58,30.12,29.99,29.87,10,10,10,22,7,30,0.00,6,,336
2013-10-23,52,42,31,40,35,29,95,81,56,30.22,30.11,30.04,10,10,10,17,5,25,0.00,5,,295
2013-10-24,50,40,30,33,26,20,87,63,32,30.41,30.34,30.22,10,10,10,14,8,18,0.00,1,,316
2013-10-25,61,43,25,32,28,22,90,60,32,30.39,30.25,30.06,10,10,7,22,7,30,0.00,1,,194
2013-10-26,52,41,30,36,30,24,80,58,34,30.24,30.15,30.02,10,10,10,22,10,28,0.00,0,,320
2013-10-27,72,49,26,36,30,23,87,59,23,30.14,29.94,29.81,10,10,10,17,7,23,0.00,0,,182
2013-10-28,53,46,38,40,35,33,83,67,50,30.19,30.11,29.94,10,8,2,21,12,26,0.01,2,Rain,45
2013-10-29,51,47,43,50,46,39,96,92,82,30.16,30.02,29.95,10,4,1,15,10,,0.07,8,Rain,61
2013-10-30,53,48,41,51,44,39,96,93,87,29.97,29.87,29.77,10,6,1,16,9,32,0.02,8,,330
2013-10-31,58,46,35,44,38,34,96,78,44,29.77,29.62,29.51,10,8,0,25,6,29,0.00,1,Fog,279